カタログに戻る

TIANMU-1 12

運用中気象SSO
NORAD 58646·PAYLOAD·🇨🇳 China

打ち上げ Dec 25, 2023 から Jiuquan Satellite Launch Center

Loading…

次のパス (今後24時間)

TLE

最新Source: Space-Track

元期: Sep 14, 2026, 22:08 UTC

1 58646U 23205B   26257.92267895  .00004935  00000-0  18629-3 0  9991
2 58646  97.3419 277.8212 0008540  43.2936 316.8973 15.27446752151206

AllMySatでTIANMU-1 12をリアルタイム追跡

Download on the App Store